Regional Weather Roundup
Issued by NWS

Home | Current Version | Previous Version | Graphics & Text | Print | Product List | Glossary On
Versions: 1 2 3 4 5 6 7 8 9 10 11 12 13 14 15 16 17 18 19 20 21 22 23 24 25 26 27
000
ASUS45 KCYS 250610
RWRWY

WYOMING REGIONAL WEATHER ROUNDUP
NATIONAL WEATHER SERVICE CHEYENNE WY
1200 AM MDT WED APR 25 2018

NOTE:  "FAIR" INDICATES FEW OR NO CLOUDS BELOW 12,000 FEET
WITH NO SIGNIFICANT WEATHER AND/OR OBSTRUCTIONS TO VISIBILITY.

WYZ001-250700-
YELLOWSTONE NATIONAL PARK

CITY           SKY/WX    TMP DP  RH WIND       PRES   REMARKS
LK YELLOWSTONE   N/A     20  15  81 CALM      30.43R
6HR MIN TEMP:  20; 6HR MAX TEMP:  40;

W YELLOWSTONE  NOT AVBL

$$
WYZ002>013-054>058-071-098>099-250700-
NORTHERN WYOMING

CITY           SKY/WX    TMP DP  RH WIND       PRES   REMARKS
JACKSON        FAIR      31  22  69 N3        30.39R
CODY           FAIR      35  23  61 S8        30.33F WCI  29
GREYBULL       FAIR      38  32  79 E5        30.36F WCI  34
6HR MIN TEMP:  38; 6HR MAX TEMP:  53;

WORLAND        FAIR      35  27  72 S13       30.36F WCI  26
6HR MIN TEMP:  35; 6HR MAX TEMP:  52;

SHERIDAN       FAIR      35  26  69 SE3       30.30F
6HR MIN TEMP:  30; 6HR MAX TEMP:  54;

BUFFALO        FAIR      34  23  64 S8        30.32F WCI  27
6HR MIN TEMP:  34; 6HR MAX TEMP:  49;

GILLETTE       FAIR      29  24  82 S10       30.35F WCI  20
6HR MIN TEMP:  28; 6HR MAX TEMP:  48;

HULETT         FAIR      30  28  93 S6        30.36F WCI  24
NEWCASTLE      FAIR      32  23  69 CALM      30.40F

$$
WYZ014>020-022>026-101>103-250700-
CENTRAL WYOMING

CITY           SKY/WX    TMP DP  RH WIND       PRES   REMARKS
BIG PINEY      FAIR      29  19  66 S9        30.42S WCI  20
6HR MIN TEMP:  25; 6HR MAX TEMP:  50;

PINEDALE       FAIR      30  23  74 CALM      30.43R
DUBOIS         FAIR      30  21  69 NW7       30.39F WCI  23
LANDER         FAIR      34  22  61 W3        30.37F
6HR MIN TEMP:  31; 6HR MAX TEMP:  47;

RIVERTON       FAIR      33  20  58 SW7       30.38F WCI  27
6HR MIN TEMP:  32; 6HR MAX TEMP:  47;

CASPER         FAIR      26  22  84 SW8       30.39F WCI  18
6HR MIN TEMP:  24; 6HR MAX TEMP:  42;

DOUGLAS        FAIR      24  21  88 CALM      30.41F
6HR MIN TEMP:  23; 6HR MAX TEMP:  41;


$$
WYZ021-027>030-104>119-250700-
SOUTHERN WYOMING

CITY           SKY/WX    TMP DP  RH WIND       PRES   REMARKS
EVANSTON       FAIR      37  20  50 E8        30.37F WCI  31
6HR MIN TEMP:  36; 6HR MAX TEMP:  52;

KEMMERER       FAIR      34  19  55 E8        30.41R WCI  27
FORT BRIDGER   FAIR      33  20  58 S10       30.42S WCI  25
ROCK SPRINGS   FAIR      31  17  56 SE9       30.41F WCI  23
6HR MIN TEMP:  30; 6HR MAX TEMP:  45;

DIXON          FAIR      31  19  61 CALM      30.42F
RAWLINS        FAIR      18  13  80 CALM      30.41F
6HR MIN TEMP:  18; 6HR MAX TEMP:  38;

SARATOGA       FAIR      27  19  74 CALM      30.43S
LARAMIE        FAIR      21  17  84 NW7       30.39F WCI  12
6HR MIN TEMP:  20; 6HR MAX TEMP:  35;

CHEYENNE       FAIR      30  25  81 W7        30.41S WCI  23
6HR MIN TEMP:  30; 6HR MAX TEMP:  36;

TORRINGTON     FAIR      34  31  88 SE5       30.41F WCI  30
6HR MIN TEMP:  33; 6HR MAX TEMP:  43;

PINE BLUFFS    FAIR      27  27 100 MISG      30.43S

$$




USA.gov is the U.S. government's official web portal to all federal, state and local government web resources and services.